TimeCST,TemperatureF,Dew PointF,Humidity,Sea Level PressureIn,VisibilityMPH,Wind Direction,Wind SpeedMPH,Gust SpeedMPH,PrecipitationIn,Events,Conditions,WindDirDegrees,DateUTC
12:00 AM,79,73,77,30.00,12,ESE,5.8,,,,Mostly Cloudy,110,2013-02-11 06:00:00
3:00 AM,78,73,79,29.96,12,ESE,11.5,,,,Scattered Clouds,120,2013-02-11 09:00:00
5:00 AM,78.8,73.4,83,29.95,6.2,ESE,11.5,-,N/A,,Scattered Clouds,110,2013-02-11 11:00:00
6:00 AM,78,74,84,29.97,12,SE,6.9,,,,Partly Cloudy,130,2013-02-11 12:00:00
6:00 AM,78.8,73.4,83,29.95,6.2,SE,6.9,-,N/A,,Scattered Clouds,130,2013-02-11 12:00:00
7:00 AM,78.8,75.2,89,29.98,6.2,ESE,6.9,-,N/A,,Mostly Cloudy,120,2013-02-11 13:00:00
8:00 AM,80.6,75.2,84,30.01,6.2,SE,13.8,-,N/A,,Mostly Cloudy,130,2013-02-11 14:00:00
9:00 AM,82,76,76,30.03,12,SE,6.9,,,,Mostly Cloudy,130,2013-02-11 15:00:00
9:00 AM,82.4,75.2,79,30.03,6.2,SE,6.9,-,N/A,,Mostly Cloudy,130,2013-02-11 15:00:00
10:00 AM,84.2,75.2,74,30.02,6.2,ESE,9.2,20.7,N/A,,Scattered Clouds,120,2013-02-11 16:00:00
11:00 AM,86.0,75.2,70,30.02,6.2,ESE,8.1,-,N/A,,Scattered Clouds,120,2013-02-11 17:00:00
12:00 PM,85,75,65,30.01,12,ESE,10.4,,,,Partly Cloudy,120,2013-02-11 18:00:00
12:00 PM,86.0,75.2,70,30.00,6.2,ESE,10.4,-,N/A,,Scattered Clouds,120,2013-02-11 18:00:00
1:00 PM,86.0,73.4,66,29.98,6.2,ESE,9.2,-,N/A,,Scattered Clouds,110,2013-02-11 19:00:00
2:00 PM,86.0,73.4,66,29.96,6.2,East,11.5,-,N/A,,Scattered Clouds,100,2013-02-11 20:00:00
3:00 PM,85,75,64,29.95,16,East,11.5,,,,Partly Cloudy,90,2013-02-11 21:00:00
3:00 PM,84.2,75.2,74,29.94,6.2,East,11.5,-,N/A,,Scattered Clouds,90,2013-02-11 21:00:00
4:00 PM,84.2,75.2,74,29.93,6.2,East,11.5,-,N/A,,Partly Cloudy,100,2013-02-11 22:00:00
5:00 PM,82.4,75.2,79,29.93,6.2,East,10.4,-,N/A,,Partly Cloudy,100,2013-02-11 23:00:00
6:00 PM,81,74,74,29.94,12,East,8.1,,,,Scattered Clouds,90,2013-02-12 00:00:00
6:00 PM,80.6,73.4,79,29.94,6.2,East,8.1,-,N/A,,Partly Cloudy,90,2013-02-12 00:00:00
9:00 PM,80,74,79,29.99,12,East,6.9,,,,Partly Cloudy,100,2013-02-12 03:00:00